When you browse on this site, cookies collect data to enhance your experience and personalize the content and advertising you see.
Visit our Privacy Policy to learn more. By continuing to use the site, you agree to this use of cookies and data.
  • In Hungary
  • List of Countries
  • For 7 days
  • Water Temperature
  • Satellite Maps
  • Weather Map
  • News
  • Weather Widgets
  • user-avatar
    Login

    Hourly Weather Sissy

    Today, 26 June, Wednesday

    Time Temperature Precipitation Wind Pressure Humidity
    00:00 +20°C° 0 mm 3 mps 760 mmHg 95%
    01:00 +20°C° 0.4 mm 3 mps 760 mmHg 94%
    02:00 +19°C° 0.4 mm 3 mps 760 mmHg 94%
    03:00 +19°C° 0.4 mm 3 mps 760 mmHg 93%
    04:00 +19°C° 0 mm 4 mps 760 mmHg 92%
    05:00 +20°C° 0 mm 4 mps 760 mmHg 90%
    06:00 +20°C° 0 mm 4 mps 761 mmHg 89%
    07:00 +21°C° 0 mm 4 mps 761 mmHg 85%
    08:00 +23°C° 0 mm 4 mps 761 mmHg 82%
    09:00 +26°C° 0 mm 4 mps 761 mmHg 79%
    10:00 +27°C° 0 mm 4 mps 761 mmHg 76%
    11:00 +28°C° 0 mm 5 mps 761 mmHg 72%
    12:00 +30°C° 0 mm 5 mps 761 mmHg 69%
    13:00 +30°C° 0 mm 5 mps 761 mmHg 69%
    14:00 +30°C° 0 mm 5 mps 760 mmHg 69%
    15:00 +32°C° 0 mm 6 mps 760 mmHg 69%
    16:00 +30°C° 0 mm 6 mps 760 mmHg 73%
    17:00 +29°C° 0 mm 6 mps 760 mmHg 76%
    18:00 +28°C° 0 mm 6 mps 760 mmHg 80%
    19:00 +27°C° 0 mm 6 mps 760 mmHg 80%
    20:00 +24°C° 0 mm 6 mps 761 mmHg 80%
    21:00 +23°C° 0 mm 6 mps 761 mmHg 80%
    22:00 +23°C° 0 mm 6 mps 761 mmHg 82%
    23:00 +22°C° 0 mm 6 mps 762 mmHg 84%

    Tomorrow, 27 June, Thursday

    Time Temperature Precipitation Wind Pressure Humidity
    00:00 +21°C° 0 mm 6 mps 762 mmHg 86%
    01:00 +20°C° 0 mm 6 mps 762 mmHg 87%
    02:00 +19°C° 0 mm 6 mps 762 mmHg 87%
    03:00 +19°C° 0 mm 6 mps 762 mmHg 88%
    04:00 +19°C° 0 mm 6 mps 762 mmHg 86%
    05:00 +19°C° 0 mm 6 mps 762 mmHg 85%
    06:00 +17°C° 0 mm 6 mps 762 mmHg 83%
    07:00 +20°C° 0 mm 6 mps 762 mmHg 79%
    08:00 +21°C° 0 mm 6 mps 762 mmHg 75%
    09:00 +22°C° 0 mm 6 mps 762 mmHg 71%
    10:00 +23°C° 0 mm 6 mps 762 mmHg 68%
    11:00 +24°C° 0 mm 6 mps 762 mmHg 65%
    12:00 +26°C° 0 mm 6 mps 762 mmHg 62%
    13:00 +26°C° 0 mm 6 mps 762 mmHg 61%
    14:00 +26°C° 0 mm 6 mps 762 mmHg 60%
    15:00 +26°C° 0 mm 6 mps 762 mmHg 60%
    16:00 +24°C° 0 mm 6 mps 762 mmHg 64%
    17:00 +23°C° 0 mm 6 mps 762 mmHg 68%
    18:00 +22°C° 0 mm 5 mps 761 mmHg 71%
    19:00 +21°C° 0 mm 5 mps 762 mmHg 73%
    20:00 +20°C° 0 mm 5 mps 762 mmHg 74%
    21:00 +19°C° 0 mm 5 mps 762 mmHg 75%
    22:00 +17°C° 0 mm 5 mps 762 mmHg 79%
    23:00 +17°C° 0 mm 4 mps 762 mmHg 83%

    Day after tomorrow, 28 June, Friday

    Time Temperature Precipitation Wind Pressure Humidity
    00:00 +15°C° 0 mm 4 mps 762 mmHg 87%
    01:00 +14°C° 0 mm 4 mps 761 mmHg 88%
    02:00 +14°C° 0 mm 4 mps 761 mmHg 89%
    03:00 +13°C° 0 mm 4 mps 761 mmHg 90%
    04:00 +14°C° 0 mm 4 mps 761 mmHg 88%
    05:00 +15°C° 0 mm 4 mps 761 mmHg 86%
    06:00 +17°C° 0 mm 4 mps 761 mmHg 83%
    07:00 +18°C° 0 mm 4 mps 761 mmHg 79%
    08:00 +20°C° 0 mm 4 mps 761 mmHg 74%
    09:00 +22°C° 0 mm 4 mps 761 mmHg 70%
    10:00 +23°C° 0 mm 4 mps 760 mmHg 67%
    11:00 +25°C° 0 mm 5 mps 760 mmHg 64%
    12:00 +26°C° 0 mm 5 mps 760 mmHg 61%
    13:00 +26°C° 0 mm 5 mps 760 mmHg 61%
    14:00 +26°C° 0 mm 5 mps 760 mmHg 61%
    15:00 +27°C° 0 mm 5 mps 759 mmHg 61%
    16:00 +26°C° 0 mm 5 mps 759 mmHg 65%
    17:00 +25°C° 0 mm 4 mps 759 mmHg 70%
    18:00 +23°C° 0 mm 4 mps 758 mmHg 74%
    19:00 +22°C° 0 mm 4 mps 759 mmHg 74%
    20:00 +20°C° 0 mm 4 mps 759 mmHg 74%
    21:00 +19°C° 0 mm 4 mps 759 mmHg 74%
    22:00 +18°C° 0 mm 3 mps 758 mmHg 74%
    23:00 +17°C° 0 mm 3 mps 758 mmHg 74%

    29 June, Saturday

    Time Temperature Precipitation Wind Pressure Humidity
    00:00 +16°C° 0 mm 3 mps 758 mmHg 74%
    01:00 +16°C° 0 mm 3 mps 758 mmHg 75%
    02:00 +14°C° 0 mm 3 mps 758 mmHg 75%
    03:00 +15°C° 0 mm 2 mps 757 mmHg 76%
    04:00 +16°C° 0 mm 2 mps 757 mmHg 76%
    05:00 +17°C° 0 mm 2 mps 757 mmHg 76%
    06:00 +18°C° 0 mm 2 mps 757 mmHg 76%
    07:00 +20°C° 0 mm 3 mps 757 mmHg 72%
    08:00 +22°C° 0 mm 3 mps 757 mmHg 68%
    09:00 +25°C° 0 mm 3 mps 757 mmHg 65%
    10:00 +26°C° 0 mm 3 mps 756 mmHg 63%
    11:00 +27°C° 0 mm 3 mps 756 mmHg 61%
    12:00 +28°C° 0 mm 3 mps 755 mmHg 59%
    13:00 +29°C° 0 mm 3 mps 755 mmHg 60%
    14:00 +29°C° 0 mm 3 mps 755 mmHg 60%
    15:00 +29°C° 0 mm 3 mps 755 mmHg 61%
    16:00 +29°C° 0 mm 3 mps 754 mmHg 64%
    17:00 +29°C° 0 mm 2 mps 754 mmHg 68%
    18:00 +28°C° 0 mm 2 mps 754 mmHg 72%
    19:00 +26°C° 0 mm 2 mps 754 mmHg 77%
    20:00 +24°C° 0 mm 2 mps 754 mmHg 81%
    21:00 +23°C° 0 mm 2 mps 754 mmHg 86%
    22:00 +21°C° 0 mm 2 mps 754 mmHg 87%
    23:00 +21°C° 0 mm 2 mps 754 mmHg 88%

    30 June, Sunday

    Time Temperature Precipitation Wind Pressure Humidity
    00:00 +20°C° 0 mm 2 mps 754 mmHg 89%
    01:00 +19°C° 0 mm 2 mps 754 mmHg 92%
    02:00 +19°C° 0 mm 2 mps 754 mmHg 95%
    03:00 +18°C° 0 mm 2 mps 754 mmHg 97%
    04:00 +19°C° 0 mm 2 mps 755 mmHg 95%
    05:00 +19°C° 0 mm 3 mps 755 mmHg 93%
    06:00 +20°C° 0 mm 3 mps 755 mmHg 90%
    07:00 +21°C° 0 mm 3 mps 756 mmHg 82%
    08:00 +21°C° 0 mm 3 mps 756 mmHg 74%
    09:00 +22°C° 0 mm 3 mps 757 mmHg 66%
    10:00 +23°C° 0 mm 4 mps 757 mmHg 64%
    11:00 +25°C° 0 mm 4 mps 757 mmHg 61%
    12:00 +25°C° 0 mm 4 mps 757 mmHg 59%
    13:00 +26°C° 0 mm 4 mps 757 mmHg 60%
    14:00 +26°C° 0 mm 4 mps 757 mmHg 60%
    15:00 +26°C° 0 mm 4 mps 757 mmHg 61%
    16:00 +25°C° 0 mm 3 mps 757 mmHg 66%
    17:00 +24°C° 0 mm 3 mps 757 mmHg 71%
    18:00 +22°C° 0 mm 3 mps 757 mmHg 75%
    19:00 +20°C° 0 mm 3 mps 757 mmHg 79%
    20:00 +18°C° 0 mm 2 mps 757 mmHg 82%
    21:00 +16°C° 0 mm 2 mps 757 mmHg 86%
    22:00 +15°C° 0 mm 2 mps 757 mmHg 88%
    23:00 +14°C° 0 mm 2 mps 757 mmHg 90%

    1 July, Monday

    Time Temperature Precipitation Wind Pressure Humidity
    00:00 +14°C° 0 mm 2 mps 757 mmHg 92%
    01:00 +13°C° 0 mm 2 mps 757 mmHg 93%
    02:00 +13°C° 0 mm 2 mps 757 mmHg 94%
    03:00 +13°C° 0 mm 2 mps 758 mmHg 95%
    04:00 +14°C° 0 mm 2 mps 757 mmHg 94%
    05:00 +15°C° 0 mm 2 mps 757 mmHg 92%
    06:00 +15°C° 0 mm 1 mps 757 mmHg 90%
    07:00 +17°C° 0.1 mm 2 mps 757 mmHg 87%
    08:00 +18°C° 0.1 mm 2 mps 758 mmHg 83%
    09:00 +20°C° 0.1 mm 3 mps 758 mmHg 80%
    10:00 +20°C° 0 mm 3 mps 758 mmHg 77%
    11:00 +21°C° 0 mm 4 mps 758 mmHg 74%
    12:00 +22°C° 0 mm 4 mps 758 mmHg 71%
    13:00 +22°C° 0 mm 5 mps 758 mmHg 69%
    14:00 +22°C° 0 mm 5 mps 758 mmHg 66%
    15:00 +23°C° 0 mm 5 mps 758 mmHg 64%
    16:00 +22°C° 0 mm 5 mps 758 mmHg 67%
    17:00 +21°C° 0 mm 5 mps 758 mmHg 70%
    18:00 +20°C° 0 mm 5 mps 758 mmHg 73%
    19:00 +18°C° 0 mm 4 mps 758 mmHg 79%
    20:00 +16°C° 0 mm 3 mps 759 mmHg 86%
    21:00 +13°C° 0 mm 3 mps 759 mmHg 92%
    22:00 +12°C° 0 mm 3 mps 760 mmHg 92%
    23:00 +12°C° 0 mm 2 mps 760 mmHg 92%
    Show more